C/2019 Y5 ( PanSTARRS )

Japanese version
Home page
Updated on February 21, 2021

---------------------------------------------------------------------

* Profile

Discovery Date December 28, 2019
Magnitude 21.4 mag
Discoverer Pan-STARRS 1 telescope (Haleakala)

* Orbital Elements

Epoch 2019 Aug. 25.0 TT = JDT 2458720.5
T 2019 Aug. 18.14667 TT                                 Rudenko
q   4.9144961            (2000.0)            P               Q
z  +0.0013417      Peri.  303.50061     +0.42316997     +0.46197545
 +/-0.0000013      Node    51.77152     +0.66792210     +0.42220778
e   0.9934060      Incl.   82.84175     -0.61221503     +0.77994825
From 57 observations 2019 Sept. 11-2020 Nov. 14, mean residual 0".4.

* Magnitudes Graph

        m1 = 10.5 + 5 log d + 10.0 log r

---------------------------------------------------------------------

The orbital elements are published on M.P.E.C. 2020-W26.
The magnitudes graphs are made with Comet for Windows.

---------------------------------------------------------------------

Copyright(C) Seiichi Yoshida (comet@aerith.net). All rights reserved.